This is the latest recevied weather packets stored in our database for station/object K5FEP. If no packets are shown the sender has not sent any weather packets the latest 10 day(s).
| Time | Temp. | Humidity | Pressure | Rain* | Wind** | Luminosity | Snow |
|---|---|---|---|---|---|---|---|
| 1788439027 | 25° C | 79% | 1017.6 hPa | 0 mm | - | 208 W/m² | - |
| 1788438726 | 25° C | 82% | 1017.7 hPa | 0 mm | - | 185 W/m² | - |
| 1788438425 | 24.44° C | 83% | 1017.6 hPa | 0 mm | - | 84 W/m² | - |
| 1788438120 | 23.89° C | 85% | 1017.6 hPa | 0 mm | - | 90 W/m² | - |
| 1788437819 | 23.89° C | 85% | 1017.8 hPa | 0 mm | - | 95 W/m² | - |
| 1788437515 | 23.89° C | 85% | 1017.7 hPa | 0 mm | - | 76 W/m² | - |
| 1788437214 | 23.89° C | 86% | 1017.7 hPa | 0 mm | - | 86 W/m² | - |
| 1788436908 | 22.78° C | 89% | 1017.6 hPa | 0 mm | - | 92 W/m² | - |
| 1788436607 | 22.22° C | 91% | 1017.9 hPa | 0 mm | - | 81 W/m² | - |
| 1788436302 | 22.22° C | 91% | 1017.7 hPa | 0 mm | - | 71 W/m² | - |
| 1788435997 | 21.67° C | 91% | 1017.6 hPa | 0 mm | - | 52 W/m² | - |
| 1788435692 | 21.67° C | 91% | 1017.6 hPa | 0 mm | - | 48 W/m² | - |
| 1788435388 | 21.67° C | 91% | 1017.4 hPa | 0 mm | - | 44 W/m² | - |
| 1788435084 | 21.67° C | 92% | 1017.5 hPa | 0 mm | - | 40 W/m² | - |
| 1788434780 | 21.67° C | 92% | 1017.4 hPa | 0 mm | - | 35 W/m² | - |
| 1788434480 | 21.67° C | 92% | 1017.3 hPa | 0 mm | - | 29 W/m² | - |
| 1788434179 | 21.11° C | 93% | 1017.4 hPa | 0 mm | - | 23 W/m² | - |
| 1788433875 | 21.11° C | 93% | 1017.3 hPa | 0 mm | - | 19 W/m² | - |
| 1788433570 | 21.11° C | 93% | 1017.3 hPa | 0 mm | - | 15 W/m² | - |
| 1788433266 | 21.11° C | 93% | 1017.1 hPa | 0 mm | - | 10 W/m² | - |
| 1788432961 | 21.11° C | 93% | 1017 hPa | 0 mm | - | 7 W/m² | - |
| 1788432655 | 21.11° C | 92% | 1017.1 hPa | 0 mm | - | 4 W/m² | - |
| 1788432355 | 21.11° C | 93% | 1016.8 hPa | 0 mm | - | 2 W/m² | - |
| 1788432051 | 21.11° C | 93% | 1016.8 hPa | 0 mm | - | 1 W/m² | - |
| 1788431747 | 21.11° C | 93% | 1016.8 hPa | 0 mm | - | 0 W/m² | - |
* Rain latest hour (hover to see other rain measurements)
** Current wind speed in m/s (hover to see current wind gust speed)